Location: Hilton Head Island
(32.2163°N, 80.7526°W)
Time: 00:24:28
(UTC-05:00)

ARIANE 6 FM1 Upper Stage - Visible Passes

Search period start: 15 January 2026 00:00
Search period end: 25 January 2026 00:00
Orbit: 522 x 610 km, 62.0° (Epoch: 14 January)

Date Brightness Start Highest point End Pass type
(mag) Time Alt. Az. Time Alt. Az. Time Alt. Az.
15 Jan 5.1 05:02:21 15° NE 05:02:45 15° NE 05:05:07 10° E visible
15 Jan 3.1 06:38:24 12° NW 06:41:53 40° WSW 06:45:40 10° S visible
16 Jan 4.7 05:03:14 22° NE 05:03:14 22° NE 05:06:16 10° ESE visible
16 Jan 3.8 06:39:17 13° WNW 06:42:00 25° WSW 06:45:19 10° S visible
17 Jan 4.3 05:04:12 30° E 05:04:12 30° E 05:07:02 10° ESE visible
17 Jan 4.4 06:40:16 12° W 06:42:05 15° WSW 06:44:31 10° SSW visible
17 Jan 4.6 18:56:12 10° SSE 18:57:44 14° SE 18:57:44 14° SE visible
17 Jan 5.7 20:33:32 10° WSW 20:33:49 12° WSW 20:33:49 12° WSW visible
18 Jan 4.3 05:05:15 31° ESE 05:05:15 31° ESE 05:07:33 10° SE visible
18 Jan 3.8 18:55:21 10° S 18:58:43 24° ESE 18:58:54 24° ESE visible
18 Jan 5.7 20:34:16 10° WSW 20:34:58 13° W 20:34:58 13° W visible
19 Jan 4.7 05:06:21 22° SSE 05:06:21 22° SSE 05:07:50 10° SSE visible
19 Jan 3.2 18:54:57 10° S 18:58:49 38° ESE 19:00:02 31° ENE visible
19 Jan 5.7 20:35:20 10° W 20:36:05 13° W 20:36:05 13° W visible
20 Jan 5.3 05:07:31 12° SSE 05:07:31 12° SSE 05:07:53 10° SSE visible
20 Jan 2.6 18:54:51 10° SSW 18:58:57 64° ESE 19:01:04 26° NE visible
21 Jan 2.7 18:55:00 10° SW 18:59:07 77° WNW 19:02:02 18° NNE visible
22 Jan 3.5 18:55:20 10° SW 18:59:19 47° NW 19:02:55 12° NNE visible
23 Jan 4.3 18:55:54 10° WSW 18:59:33 30° NW 19:03:08 10° N visible
24 Jan 4.9 18:56:45 10° W 18:59:49 20° NW 19:02:51 10° N visible
